Dewpoint
55 55 56 57 57 57 57 58 58 58 57 57 58 59 59 60 58 45 42 52 65 74 72 63 64 65 65 62 65 64 59 56 55 56 55 56 53 54 58 55 56 57 57 57 57
56 55 56 56 56 57 58 58 58 58 57 58 58 59 59 60 48 32 51 72 73 74 63 60 62 64 62 60 60 58 53 54 61 63 60 56 54 56 57 57 55 55 57 57 57
55 55 56 56 56 56 57 57 57 57 58 57 58 59 59 59 41 39 74 74 71 73 59 61 62 56 53 58 57 55 53 53 57 61 61 60 57 56 57 57 54 55 55 56 56
55 56 56 56 56 56 56 56 57 57 57 57 57 59 59 52 28 49 75 74 73 68 57 55 57 50 46 51 56 52 52 49 55 59 59 61 60 58 57 60 55 56 56 55 55
55 55 55 56 56 56 56 56 56 57 57 57 57 59 52 35 19 59 74 73 68 64 55 56 55 47 45 42 52 52 46 47 55 59 59 63 63 59 59 60 56 56 56 55 54
56 56 56 55 56 56 56 57 57 56 56 57 57 60 51 18 15 63 61 64 57 58 55 53 52 48 42 42 42 45 45 45 56 57 55 60 62 62 60 59 55 55 55 55 53
56 56 56 56 55 56 56 56 56 56 56 57 57 53 37 22 18 46 57 57 56 53 51 51 51 46 43 41 42 45 43 51 55 58 57 60 57 60 61 59 55 54 54 54 54
55 56 56 56 56 56 56 56 55 55 56 57 60 48 34 16 15 14 11 48 51 51 51 50 46 43 43 41 39 38 48 46 51 58 60 59 55 60 64 62 57 55 54 54 55
55 55 55 55 56 55 55 55 55 56 57 58 52 47 27 31 23 12 10 15 44 45 48 47 43 42 42 39 37 35 42 51 53 54 59 56 56 55 52 57 57 57 56 54 54
55 55 55 55 55 55 54 55 54 54 51 42 40 32 30 26 8 7 8 15 29 42 42 41 41 41 42 39 32 33 48 49 50 53 57 55 56 55 54 54 57 57 57 55 54
55 54 54 54 54 54 52 42 39 38 32 29 26 27 13 8 14 2 1 9 24 29 38 39 38 39 39 36 34 33 33 46 49 55 54 54 53 52 55 53 56 58 57 57 54
54 54 54 54 53 53 51 39 27 24 23 24 26 26 21 17 5 1 0 -1 8 19 38 37 36 38 38 35 33 32 32 43 48 51 51 53 50 50 51 55 59 61 58 58 55
54 54 53 53 53 51 40 33 25 24 23 21 18 15 18 11 7 7 3 3 1 18 30 26 32 37 36 34 31 30 29 43 44 50 51 53 51 52 52 56 62 61 58 58 56
54 53 53 52 47 40 35 31 24 25 21 15 12 12 12 7 6 10 9 5 5 7 24 24 24 31 33 32 31 28 29 37 38 40 41 50 45 51 52 54 61 59 57 56 56
53 53 52 51 46 40 35 31 27 26 15 10 6 8 6 6 4 4 6 3 1 4 8 15 22 20 21 28 30 28 29 29 39 37 35 46 42 46 51 51 55 60 59 57 56
53 53 52 47 48 45 43 30 29 22 14 5 5 -2 -3 -1 -2 -2 -3 -2 2 1 5 5 14 18 19 22 24 28 27 27 32 35 28 34 39 40 49 50 51 56 56 56 56
52 51 50 46 38 37 33 32 23 16 13 4 4 3 3 -3 -6 -5 -4 -4 -2 0 3 8 7 7 14 16 19 23 25 25 29 30 31 31 28 41 48 49 51 51 54 56 57
51 51 50 45 41 38 32 31 23 15 9 8 10 4 4 4 -2 -4 -4 -4 -3 -3 3 4 4 6 8 12 16 20 24 24 28 29 31 31 27 38 42 47 51 51 51 55 56
51 47 46 42 41 37 33 27 23 20 16 12 11 8 9 5 5 3 1 -6 -3 -7 -6 -2 4 9 5 6 13 15 20 26 24 30 29 29 28 39 39 47 50 55 59 55 57
48 45 43 41 36 33 30 28 24 23 16 14 14 15 11 9 6 3 6 -1 -4 0 -4 -6 -6 3 6 6 6 14 21 22 26 23 25 27 32 33 39 36 45 50 51 53 55
48 44 35 31 32 34 27 24 26 21 16 15 14 14 14 14 15 12 8 7 11 -1 -1 -6 -4 -5 4 4 6 8 13 21 26 27 24 26 28 35 38 36 37 45 47 50 51
45 41 38 37 33 32 29 32 34 27 21 19 17 16 14 14 16 14 14 22 21 20 7 17 -6 -2 -5 1 10 8 12 20 26 27 30 29 28 36 33 35 36 37 40 46 46
44 43 42 33 30 27 32 30 30 22 23 21 21 22 18 16 17 17 25 23 24 23 32 30 16 -2 8 6 2 9 7 13 24 27 27 28 29 35 37 35 41 44 48 51 55
44 38 38 37 39 30 27 25 22 29 29 32 32 31 26 26 21 21 20 20 21 21 50 36 20 21 13 15 18 19 12 8 17 24 25 28 31 34 34 35 39 44 49 60 62
45 34 34 28 30 29 32 32 30 31 32 34 35 35 34 31 28 24 23 25 22 38 26 24 24 25 20 16 13 10 8 9 15 20 25 26 35 47 40 36 45 51 59 61 62
38 37 36 35 33 30 32 30 28 28 30 31 36 37 37 35 34 32 30 26 26 23 22 19 24 28 22 19 16 10 6 17 9 17 18 25 50 51 54 59 59 59 59 60 61
43 40 40 37 32 30 30 29 28 29 30 30 33 37 39 39 39 37 35 31 29 28 24 21 23 24 20 26 18 16 15 19 15 40 42 42 51 52 56 59 60 60 61 61 61
Lifted_Index
15 15 15 14 14 14 14 14 14 14 14 14 14 13 13 12 10 8 5 3 0 -2 -2 -2 -3 -4 -3 -3 -2 -2 -1 -1 -1 -2 -2 -2 -2 -1 -1 -1 -1 -1 -0 0 0
14 15 15 15 15 14 14 14 14 14 14 14 14 13 13 11 9 7 4 2 -0 -1 -2 -2 -3 -3 -3 -3 -2 -2 -2 -1 -1 -1 -2 -2 -2 -2 -2 -1 -1 -0 0 1 1
15 15 15 15 15 15 14 14 14 14 14 14 14 13 13 11 8 5 3 1 -0 -1 -1 -2 -3 -2 -2 -2 -2 -2 -2 -1 -1 -1 -2 -2 -2 -2 -2 -1 -1 -0 1 1 1
15 15 15 15 15 15 15 15 15 14 14 14 14 13 12 11 8 5 2 1 -0 -0 -1 -2 -2 -1 -1 -2 -2 -2 -2 -1 -2 -2 -2 -2 -3 -3 -2 -1 -1 -0 1 1 1
15 15 15 15 15 15 15 15 15 15 15 14 14 13 12 10 7 4 2 1 0 0 -0 -1 -2 -1 -0 -1 -1 -1 -1 -2 -2 -2 -2 -2 -3 -3 -2 -1 -1 0 1 2 2
15 15 15 15 15 15 15 15 15 15 15 14 13 13 11 9 7 5 2 2 2 1 0 -1 -1 -1 -0 -0 -1 -1 -2 -2 -2 -2 -1 -2 -2 -2 -2 -1 -0 0 1 2 2
15 15 15 15 15 15 15 15 15 15 15 14 13 12 11 9 9 6 4 3 2 2 1 -0 -1 -0 -0 0 0 -1 -2 -2 -2 -1 -1 -1 -1 -1 -1 -1 -1 -0 1 1 1
15 14 14 14 15 15 15 15 15 15 14 13 12 11 10 10 10 9 6 4 3 2 1 0 0 1 1 1 1 0 -1 -2 -2 -1 -1 -0 0 -0 -1 -1 -1 -1 0 1 1
14 14 14 14 14 15 15 15 15 14 14 13 12 11 10 10 10 10 8 6 4 3 2 1 2 2 1 1 1 1 -1 -2 -2 -2 -1 -0 0 0 -0 -1 -2 -1 -1 -0 0
14 14 14 14 14 15 15 15 14 13 13 13 12 11 10 9 10 10 9 8 6 4 3 3 2 2 1 1 1 0 -1 -2 -2 -2 -1 -0 1 0 -0 -2 -2 -2 -2 -1 -1
14 14 13 13 14 14 14 13 12 12 12 12 12 11 10 10 10 10 10 9 7 5 4 4 3 2 2 1 1 1 -1 -2 -2 -2 -1 -0 0 -0 -1 -2 -3 -3 -3 -2 -2
12 12 12 12 13 13 12 12 12 12 12 11 11 11 10 10 10 10 9 9 8 6 5 4 4 3 2 2 1 1 -0 -2 -2 -2 -1 -0 -0 -1 -1 -2 -3 -3 -3 -3 -2
11 11 11 11 11 10 10 11 11 12 11 10 10 10 10 10 10 9 9 8 8 6 5 5 4 3 2 2 2 1 -0 -1 -2 -2 -1 -1 -1 -1 -1 -2 -3 -3 -3 -3 -2
10 10 10 10 9 8 8 9 10 10 9 7 8 9 9 10 10 9 8 8 8 7 7 6 6 4 3 2 2 2 1 -1 -1 -1 -1 -1 -1 -1 -1 -2 -2 -2 -3 -3 -2
8 8 9 9 8 7 7 8 9 8 5 5 7 8 8 9 9 8 8 8 8 7 7 7 6 5 4 3 2 2 1 0 -1 -1 -0 -1 -1 -1 -2 -2 -2 -3 -3 -3 -2
7 7 7 7 6 5 6 6 7 5 4 3 5 6 7 7 7 7 7 7 7 7 7 6 6 6 5 4 3 2 2 0 -0 -0 0 -0 -1 -1 -2 -2 -2 -3 -3 -3 -3
6 6 6 6 5 5 5 5 4 4 3 2 2 3 4 5 6 6 6 6 6 6 6 6 5 5 5 4 3 2 1 0 -0 -0 0 0 -0 -1 -2 -2 -2 -3 -3 -3 -3
5 5 5 4 4 4 4 4 3 2 2 1 1 1 2 3 4 4 5 5 6 6 5 5 5 5 5 4 3 2 1 0 -0 -0 0 0 -0 -1 -1 -2 -2 -2 -3 -3 -4
4 4 3 3 4 4 4 3 2 2 1 1 1 0 1 1 2 2 3 3 4 5 5 4 4 4 4 3 2 2 1 0 -0 -0 -0 -0 -0 -1 -1 -1 -2 -2 -3 -3 -4
2 2 2 2 3 3 3 2 2 1 1 2 2 1 1 1 1 1 1 1 2 3 3 4 4 3 3 2 2 1 1 0 -0 -0 -0 0 -0 -1 -1 -1 -1 -2 -3 -3 -4
1 0 1 2 2 2 2 1 1 1 2 2 2 2 2 2 1 1 0 0 1 1 2 2 3 3 2 2 2 1 1 0 0 -0 -0 0 0 -0 -0 -0 -0 -1 -2 -3 -3
-0 -0 0 1 1 1 1 0 0 1 1 2 2 2 2 2 2 1 0 0 1 1 1 1 2 2 2 2 1 1 1 0 0 0 0 0 1 0 -0 -0 -0 -0 -1 -2 -3
-0 -1 -0 0 0 0 0 0 0 0 1 1 2 2 2 2 2 1 1 1 1 1 1 1 1 1 1 1 1 0 0 0 -0 0 0 0 0 -0 -0 -0 -0 -0 -1 -3 -4
-0 -1 -0 0 0 0 1 1 0 0 0 1 1 1 1 2 2 1 1 1 1 1 1 1 1 1 1 1 1 0 -0 -0 -0 -0 0 1 -0 -1 -0 -0 -0 -1 -2 -4 -5
1 0 0 0 0 1 1 1 0 0 0 0 0 1 1 1 1 1 1 1 1 1 2 1 1 1 1 1 1 1 0 0 -0 -0 0 0 -1 -2 -1 -1 -2 -3 -4 -5 -5
2 2 1 0 0 1 1 1 1 1 1 1 0 0 0 1 1 1 1 1 1 1 1 1 1 1 1 2 2 1 1 0 -0 -1 -1 -1 -3 -3 -3 -4 -4 -4 -4 -4 -4
3 2 1 0 1 1 2 2 2 2 2 1 1 0 0 0 1 2 2 1 1 1 1 1 1 1 1 2 2 2 1 1 -0 -1 -1 -2 -3 -4 -4 -5 -5 -5 -4 -4 -4